| time (UTC) | temp C | wind direction | speed KPH | gust KPH | rain 1hr cm | rain 24hr cm | rain mn cm | humidity % | barometer mb |
| 20260504034609 | 21 | 0 | 0.0 | 0.0 | 0.00 | 0.00 | 0.00 | 66 | 1008.3 |
| 20260504033047 | 21 | 0 | 0.0 | 0.0 | 0.00 | 0.00 | 0.00 | 64 | 1008.0 |
| 20260504031544 | 22 | 0 | 0.0 | 0.0 | 0.00 | 0.00 | 0.00 | 62 | 1007.8 |
| 20260504030058 | 23 | 0 | 0.0 | 0.0 | 0.00 | 0.00 | 0.00 | 58 | 1007.7 |
| 20260504024541 | 24 | 0 | 0.0 | 0.0 | 0.00 | 0.00 | 0.00 | 54 | 1007.6 |
| 20260504023043 | 25 | 0 | 0.0 | 0.0 | 0.00 | 0.00 | 0.00 | 50 | 1007.6 |
| 20260504021550 | 26 | 0 | 0.0 | 0.0 | 0.00 | 0.00 | 0.00 | 48 | 1007.8 |
| 20260504020043 | 27 | 0 | 0.0 | 3.2 | 0.00 | 0.00 | 0.00 | 45 | 1007.8 |
| 20260504014555 | 28 | 0 | 0.0 | 4.8 | 0.00 | 0.00 | 0.00 | 39 | 1007.7 |
| 20260504013054 | 28 | 0 | 0.0 | 6.4 | 0.00 | 0.00 | 0.00 | 37 | 1007.8 |
| 20260504011548 | 29 | 78 | 1.6 | 8.0 | 0.00 | 0.00 | 0.00 | 36 | 1007.8 |
| 20260504010043 | 29 | 0 | 1.6 | 6.4 | 0.00 | 0.00 | 0.00 | 36 | 1007.8 |
| 20260504004546 | 29 | 29 | 1.6 | 6.4 | 0.00 | 0.00 | 0.00 | 36 | 1007.7 |
| 20260504003043 | 30 | 345 | 1.6 | 9.7 | 0.00 | 0.00 | 0.00 | 34 | 1007.9 |
| 20260504001600 | 30 | 348 | 0.0 | 6.4 | 0.00 | 0.00 | 0.00 | 34 | 1007.8 |
| 20260504000042 | 29 | 20 | 3.2 | 12.9 | 0.00 | 0.00 | 0.00 | 33 | 1007.8 |
| 20260503234544 | 29 | 342 | 3.2 | 9.7 | 0.00 | 0.00 | 0.00 | 32 | 1007.8 |
| 20260503233046 | 28 | 0 | 3.2 | 14.5 | 0.00 | 0.00 | 0.00 | 35 | 1007.8 |
| 20260503231539 | 28 | 317 | 3.2 | 16.1 | 0.00 | 0.00 | 0.00 | 36 | 1008.0 |
| 20260503230043 | 28 | 35 | 3.2 | 12.9 | 0.00 | 0.00 | 0.00 | 41 | 1008.2 |
| 20260503224543 | 28 | 32 | 3.2 | 14.5 | 0.00 | 0.00 | 0.00 | 42 | 1008.4 |
| 20260503223043 | 28 | 20 | 4.8 | 14.5 | 0.00 | 0.00 | 0.00 | 43 | 1008.7 |
| 20260503221547 | 28 | 332 | 1.6 | 14.5 | 0.00 | 0.00 | 0.00 | 44 | 1008.9 |
| 20260503220043 | 28 | 0 | 1.6 | 9.7 | 0.00 | 0.00 | 0.00 | 44 | 1009.1 |
| 20260503214547 | 28 | 45 | 1.6 | 8.0 | 0.00 | 0.00 | 0.00 | 46 | 1009.4 |
| 20260503213049 | 28 | 169 | 1.6 | 11.3 | 0.00 | 0.00 | 0.00 | 44 | 1009.6 |
| 20260503211549 | 27 | 0 | 1.6 | 8.0 | 0.00 | 0.00 | 0.00 | 45 | 1009.7 |
| 20260503210048 | 27 | 244 | 3.2 | 11.3 | 0.00 | 0.00 | 0.00 | 46 | 1009.8 |
| 20260503204553 | 27 | 360 | 1.6 | 6.4 | 0.00 | 0.00 | 0.00 | 48 | 1009.9 |
| 20260503203049 | 26 | 241 | 1.6 | 9.7 | 0.00 | 0.00 | 0.00 | 48 | 1010.0 |
| 20260503201547 | 26 | 190 | 3.2 | 11.3 | 0.00 | 0.00 | 0.00 | 51 | 1010.2 |
| 20260503200042 | 25 | 311 | 1.6 | 8.0 | 0.00 | 0.00 | 0.00 | 54 | 1010.5 |
| 20260503194546 | 25 | 30 | 3.2 | 8.0 | 0.00 | 0.00 | 0.00 | 55 | 1010.7 |
| 20260503193049 | 24 | 0 | 1.6 | 8.0 | 0.00 | 0.00 | 0.00 | 57 | 1010.9 |
| 20260503191550 | 23 | 340 | 3.2 | 8.0 | 0.00 | 0.00 | 0.00 | 57 | 1011.1 |
| 20260503184543 | 22 | 28 | 1.6 | 11.3 | 0.00 | 0.00 | 0.00 | 60 | 1011.5 |
| 20260503183055 | 22 | 40 | 1.6 | 8.0 | 0.00 | 0.00 | 0.00 | 62 | 1011.6 |
| 20260503181548 | 21 | 90 | 3.2 | 6.4 | 0.00 | 0.00 | 0.00 | 63 | 1011.6 |
| 20260503180056 | 20 | 352 | 3.2 | 8.0 | 0.00 | 0.00 | 0.00 | 64 | 1011.7 |
| 20260503174542 | 20 | 98 | 1.6 | 6.4 | 0.00 | 0.00 | 0.00 | 65 | 1011.9 |
| 20260503173106 | 19 | 352 | 1.6 | 8.0 | 0.00 | 0.00 | 0.00 | 68 | 1012.0 |
| 20260503171550 | 18 | 58 | 3.2 | 8.0 | 0.00 | 0.00 | 0.00 | 70 | 1012.1 |
| 20260503081547 | 11 | 0 | 0.0 | 0.0 | 0.00 | 0.00 | 0.00 | 92 | 1012.4 |
| 20260503071550 | 12 | 0 | 0.0 | 0.0 | 0.00 | 0.00 | 0.00 | 90 | 1012.4 |
| 20260503054544 | 13 | 0 | 0.0 | 0.0 | 0.00 | 0.00 | 0.00 | 87 | 1012.3 |
| 20260503053045 | 13 | 0 | 0.0 | 0.0 | 0.00 | 0.00 | 0.00 | 87 | 1012.5 |
| 20260503051556 | 14 | 0 | 0.0 | 0.0 | 0.00 | 0.00 | 0.00 | 86 | 1012.4 |
| 20260503050046 | 14 | 0 | 0.0 | 0.0 | 0.00 | 0.00 | 0.00 | 85 | 1012.5 |
| 20260503044547 | 15 | 0 | 0.0 | 0.0 | 0.00 | 0.00 | 0.00 | 84 | 1012.5 |
| 20260503043052 | 15 | 0 | 0.0 | 0.0 | 0.00 | 0.00 | 0.00 | 83 | 1012.5 |
| 20260503041550 | 15 | 0 | 0.0 | 0.0 | 0.00 | 0.00 | 0.00 | 82 | 1012.1 |
| 20260503040044 | 16 | 0 | 0.0 | 0.0 | 0.00 | 0.00 | 0.00 | 80 | 1012.0 |